PP5AMP-13 Weather Reports


time (UTC)temp
F
wind
direction
speed
knots
gust
knots
rain 1hr
in
rain 24hr
in
rain mn
in
humidity
%
barometer
mb
20260504173116 77 0.0 0.0 0.00 0.00 0.00 63 1019.4
20260504172116 76 0.0 0.0 0.00 0.00 0.00 64 1019.6
20260504171116 76 0.0 0.0 0.00 0.00 0.00 65 1019.8
20260504170116 76 0.0 0.0 0.00 0.00 0.00 64 1020.1
20260504160118 76 0.0 0.0 0.00 0.00 0.00 63 1020.6
20260504151116 75 0.0 0.0 0.00 0.00 0.00 61 1021.3
20260504150116 76 0.0 0.0 0.00 0.00 0.00 60 1021.4
20260504141118 76 0.0 0.0 0.00 0.00 0.00 59 1021.9
20260504140116 75 0.0 0.0 0.00 0.00 0.00 61 1022.0
20260504130257 73 0.0 0.0 0.00 0.00 0.00 65 1022.2
20260504120257 73 0.0 0.0 0.00 0.00 0.00 65 1022.2
20260504110257 71 0.0 0.0 0.00 0.00 0.00 65 1021.7
20260504100256 70 0.0 0.0 0.00 0.00 0.00 66 1021.2
20260504081256 71 0.0 0.0 0.00 0.00 0.00 64 1020.4
20260504080257 71 0.0 0.0 0.00 0.00 0.00 64 1020.6
20260504070304 72 0.0 0.0 0.00 0.00 0.00 63 1020.7
20260504050306 72 0.0 0.0 0.00 0.00 0.00 61 1022.0
20260504045257 72 0.0 0.0 0.00 0.00 0.00 61 1022.3
20260504044256 72 0.0 0.0 0.00 0.00 0.00 60 1022.4
20260504043255 72 0.0 0.0 0.00 0.00 0.00 61 1022.5
20260504042256 72 0.0 0.0 0.00 0.00 0.00 61 1022.5
20260504041255 72 0.0 0.0 0.00 0.00 0.00 61 1022.4
20260504040256 72 0.0 0.0 0.00 0.00 0.00 61 1022.4
20260504035256 73 0.0 0.0 0.00 0.00 0.00 61 1022.5
20260504034255 72 0.0 0.0 0.00 0.00 0.00 60 1022.5
20260504033255 73 0.0 0.0 0.00 0.00 0.00 60 1022.5
20260504032256 73 0.0 0.0 0.00 0.00 0.00 60 1022.8
20260504031256 73 0.0 0.0 0.00 0.00 0.00 60 1023.0
20260504030255 73 0.0 0.0 0.00 0.00 0.00 60 1023.1
20260504025256 73 0.0 0.0 0.00 0.00 0.00 59 1023.1
20260504024255 73 0.0 0.0 0.00 0.00 0.00 59 1023.2
20260504023255 73 0.0 0.0 0.00 0.00 0.00 59 1023.2
20260504022255 73 0.0 0.0 0.00 0.00 0.00 59 1023.3
20260504021255 73 0.0 0.0 0.00 0.00 0.00 59 1023.5
20260504020255 73 0.0 0.0 0.00 0.00 0.00 60 1023.5
20260504015259 73 0.0 0.0 0.00 0.00 0.00 59 1023.5
20260504014255 73 0.0 0.0 0.00 0.00 0.00 59 1023.6
20260504013255 73 0.0 0.0 0.00 0.00 0.00 59 1023.7
20260504012257 73 0.0 0.0 0.00 0.00 0.00 59 1023.7
20260504011255 73 0.0 0.0 0.00 0.00 0.00 59 1023.7
20260504010255 73 0.0 0.0 0.00 0.00 0.00 59 1023.6
20260504005255 73 0.0 0.0 0.00 0.00 0.00 59 1023.6
20260504004255 73 0.0 0.0 0.00 0.00 0.00 58 1023.5
20260504003255 73 0.0 0.0 0.00 0.00 0.00 58 1023.8
20260504002255 73 0.0 0.0 0.00 0.00 0.00 58 1023.8
20260504001255 73 0.0 0.0 0.00 0.00 0.00 58 1023.9
20260504000255 73 0.0 0.0 0.00 0.00 0.00 57 1023.8
20260503235255 73 0.0 0.0 0.00 0.00 0.00 57 1023.7
20260503234255 73 0.0 0.0 0.00 0.00 0.00 57 1023.7
20260503233255 73 0.0 0.0 0.00 0.00 0.00 57 1023.7
20260503232255 73 0.0 0.0 0.00 0.00 0.00 56 1023.7
20260503231256 73 0.0 0.0 0.00 0.00 0.00 56 1023.7
20260503230254 73 0.0 0.0 0.00 0.00 0.00 56 1023.6
20260503225256 73 0.0 0.0 0.00 0.00 0.00 56 1023.6
20260503224255 73 0.0 0.0 0.00 0.00 0.00 56 1023.6
20260503223256 73 0.0 0.0 0.00 0.00 0.00 56 1023.6
20260503222255 73 0.0 0.0 0.00 0.00 0.00 56 1023.6
20260503221255 73 0.0 0.0 0.00 0.00 0.00 55 1023.5
20260503220254 73 0.0 0.0 0.00 0.00 0.00 55 1023.6
20260503215255 73 0.0 0.0 0.00 0.00 0.00 55 1023.6
20260503214255 73 0.0 0.0 0.00 0.00 0.00 55 1023.5
20260503213255 73 0.0 0.0 0.00 0.00 0.00 54 1023.5
20260503212256 73 0.0 0.0 0.00 0.00 0.00 53 1023.4
20260503211254 73 0.0 0.0 0.00 0.00 0.00 52 1023.4
20260503210254 73 0.0 0.0 0.00 0.00 0.00 52 1023.4
20260503205255 73 0.0 0.0 0.00 0.00 0.00 51 1023.3
20260503204255 73 0.0 0.0 0.00 0.00 0.00 51 1023.3
20260503203256 73 0.0 0.0 0.00 0.00 0.00 50 1023.3
20260503202254 73 0.0 0.0 0.00 0.00 0.00 50 1023.2
20260503201254 73 0.0 0.0 0.00 0.00 0.00 50 1023.2
20260503200254 73 0.0 0.0 0.00 0.00 0.00 49 1023.1
20260503195254 73 0.0 0.0 0.00 0.00 0.00 49 1023.0
20260503194254 73 0.0 0.0 0.00 0.00 0.00 50 1023.0
20260503193254 73 0.0 0.0 0.00 0.00 0.00 49 1023.0
20260503192259 73 0.0 0.0 0.00 0.00 0.00 49 1023.0
20260503191254 73 0.0 0.0 0.00 0.00 0.00 48 1023.1
20260503190254 73 0.0 0.0 0.00 0.00 0.00 48 1023.1
20260503185254 73 0.0 0.0 0.00 0.00 0.00 48 1023.1
20260503184254 73 0.0 0.0 0.00 0.00 0.00 48 1023.3
20260503183254 73 0.0 0.0 0.00 0.00 0.00 48 1023.2
20260503182254 73 0.0 0.0 0.00 0.00 0.00 47 1023.2
20260503181254 73 0.0 0.0 0.00 0.00 0.00 47 1023.3
20260503180254 73 0.0 0.0 0.00 0.00 0.00 47 1023.2
20260503175254 73 0.0 0.0 0.00 0.00 0.00 47 1023.1
20260503174254 73 0.0 0.0 0.00 0.00 0.00 47 1023.1